Погода в Черепаново

Россия / Тюменская область     57°42′06″N   65°59′47″E
темп.,
°C
ветер,
м/с
пор.,
м/с
влажн.,
%
обл.,
%
осадки,
мм/ч
давл.,
гПа
погр.,
м
25 июля, вс
вс2523:00+15юв1196100 0.0 100614
02:00+14юз0097100 0.0 100711
05:00+14с1195100 0.0 100612
08:00+17ссз2384100 0.0 1006197
11:00+21ссз35715 0.6 1007809
14:00+21сз676750 2.3 10081113
17:00+19ссз575064 2.5 10101102
20:00+16сз375834 0.0 1011175
26 июля, пн
пн2623:00+12сз38610 0.0 1013143
02:00+10сз411705 0.0 1014276
05:00+9сз310765 0.0 1015256
08:00+15сз465714 0.0 1016573
11:00+15зсз4656100 0.0 1016641
14:00+18зсз464133 0.0 10151980
17:00+17зсз3648100 0.0 1014787
20:00+15з266415 0.0 1014212
27 июля, вт
вт2723:00+13юз386188 0.0 1014190
02:00+11зюз387071 0.0 1013177
05:00+10зюз38865 0.0 1012162
08:00+15зюз46686 0.0 1011500
11:00+20зюз575089 0.0 10091648
14:00+18з697194 0.9 10091385
17:00+16зюз47776 1.9 1008861
20:00+14сз23866 1.0 100842
28 июля, ср
ср2823:00+10сз229279 1.0 100936
02:00+11зсз248896 0.0 100972
05:00+10сз2282100 0.0 100825
08:00+13зюз2372100 0.0 1008250
11:00+14зюз256467 0.0 1008389
14:00+15зсз4850100 0.1 10081200
17:00+16сз485282 0.1 10091814
20:00+12зсз12675 0.1 101019
29 июля, чт
чт2923:00+9зюз2377100 0.1 101047
02:00+9ююз377592 0.0 1009128
05:00+9ююз41076100 0.0 1008211
08:00+9ю31095100 2.3 1007355
11:00+13зюз4109158 2.9 1007608
14:00+18з597342 0.8 10061281
17:00+16з498558 2.4 1006562
20:00+15з269341 2.3 1006153